Wind_Speed
55 55 55 55 56 56 56 54 52 46 45 42 41 39 38 38 37 37 36 36 37 36 36 36 35 35 35 35 34 34 34 33 33 33 33 33 33 34 34 35 36 36 37 38
54 54 55 55 55 55 55 53 52 49 46 41 41 41 40 39 38 37 37 37 37 37 36 35 35 35 35 35 34 34 33 33 33 33 33 33 34 34 34 35 36 37 37 38
56 55 54 55 53 54 55 54 53 52 45 43 43 42 41 40 40 39 38 38 37 36 36 36 35 35 35 35 34 34 33 33 33 33 33 33 34 34 35 36 36 37 37 38
52 54 56 52 50 52 53 53 51 50 46 44 43 43 43 42 41 41 40 39 38 37 37 36 36 36 35 35 34 34 34 33 33 33 33 34 34 35 35 36 37 37 38 39
50 53 53 51 49 49 51 51 49 48 46 45 45 46 45 43 42 42 42 41 39 38 38 37 36 36 36 35 35 34 34 34 33 34 34 34 35 35 36 37 38 38 38 39
50 52 51 47 46 46 47 49 46 46 45 45 46 48 43 41 43 43 42 40 39 38 38 37 36 36 35 35 35 34 34 34 34 35 35 35 35 36 37 37 38 38 38 39
48 51 48 44 44 46 46 44 44 45 45 45 46 44 39 41 42 42 41 40 39 39 38 37 37 36 35 35 35 35 35 35 35 35 35 36 36 37 37 38 38 38 39 40
47 49 47 43 42 42 41 42 42 43 44 44 43 42 41 41 41 42 41 40 40 39 39 38 37 36 35 35 35 35 35 35 35 35 36 36 37 37 37 38 38 39 40 41
46 46 44 43 42 40 39 41 41 42 42 43 42 42 41 41 40 40 40 39 39 39 38 38 37 36 36 35 35 35 35 35 35 35 36 36 37 37 37 38 38 40 41 42
43 44 43 40 39 41 41 40 40 41 41 41 40 39 39 39 39 38 38 38 38 38 37 37 37 37 36 36 36 36 35 35 35 36 36 36 37 37 37 38 39 40 41 43
44 44 43 41 39 38 38 39 41 41 42 41 40 38 38 38 37 37 36 37 37 37 36 36 36 36 35 35 35 35 35 35 36 35 36 36 36 37 38 39 40 41 42 43
44 44 44 42 41 41 39 37 38 39 39 40 40 38 37 36 37 36 35 35 35 35 35 35 35 35 34 34 35 35 35 35 35 35 36 36 37 38 39 40 40 41 42 43
42 43 44 43 43 43 40 37 36 37 38 38 38 38 36 35 35 35 35 34 33 34 34 35 34 34 34 34 34 35 35 35 35 36 36 37 38 39 40 40 41 42 43 43
40 42 44 44 43 44 41 38 36 36 36 36 36 36 35 35 34 34 33 34 34 34 35 35 34 34 34 35 34 35 35 35 36 36 37 38 39 39 40 40 41 42 42 43
37 39 41 42 42 42 41 38 36 36 36 36 36 35 34 34 34 34 33 33 33 34 34 35 35 34 34 34 34 35 35 35 36 37 37 38 38 39 40 41 41 42 43 44
35 36 38 39 40 40 40 39 37 37 37 36 36 35 34 34 34 34 33 33 33 33 33 33 33 34 34 34 34 35 35 36 36 37 38 38 38 39 40 41 42 43 44 45
33 34 35 37 38 39 39 39 37 36 36 36 35 35 35 34 34 33 33 32 32 32 32 33 33 33 34 34 35 35 36 36 37 37 37 38 39 41 42 42 43 44 45 46
31 34 35 36 37 38 39 38 37 36 35 35 35 35 35 33 32 32 32 32 32 32 32 32 33 33 34 34 35 35 35 36 37 37 38 40 41 42 42 43 44 45 46 47
33 34 35 34 35 35 37 37 36 35 35 35 35 35 34 33 32 31 32 32 32 32 32 32 33 33 34 34 34 35 36 37 37 38 39 41 41 42 43 44 45 46 47 48
31 33 34 33 33 34 34 35 36 35 34 34 34 34 34 33 32 32 32 32 32 32 32 32 33 33 34 34 35 36 36 37 38 38 40 41 41 42 43 44 45 46 48 50
29 30 31 32 33 33 34 34 35 34 33 33 34 34 33 33 33 32 32 32 32 32 32 33 33 33 34 34 35 35 36 37 37 38 39 40 41 42 43 44 46 47 48 50
27 28 29 30 31 33 33 33 34 33 33 33 34 34 34 34 33 33 33 33 33 33 32 32 33 33 34 34 35 36 36 37 38 38 39 40 41 43 44 45 46 48 49 50
28 28 28 29 29 30 31 32 32 33 34 34 34 33 33 33 33 33 33 33 33 33 33 33 33 34 35 35 36 36 36 37 38 39 40 41 42 44 45 46 48 48 50 51
26 27 26 27 28 29 30 31 32 32 33 34 33 32 31 31 31 32 33 33 33 33 33 33 34 34 35 36 36 37 37 38 39 40 41 42 43 44 46 47 48 49 50 51
25 26 27 26 26 27 28 29 29 31 31 32 31 31 31 31 31 31 32 33 33 33 33 34 34 35 36 36 37 37 38 39 40 41 42 43 44 45 47 48 49 50 51 51
23 24 25 25 25 25 26 27 27 27 28 29 30 30 30 30 30 30 31 32 32 32 33 34 35 36 36 37 37 38 38 39 41 42 42 43 45 46 48 49 50 52 52 52
22 22 22 23 23 24 25 26 26 26 27 28 28 29 29 29 30 31 31 31 32 33 34 35 35 35 36 36 37 38 39 40 41 42 43 45 46 47 49 50 51 52 52 52
Wind_Direction
224 224 225 227 227 228 229 231 232 231 231 229 232 233 235 237 237 237 239 241 243 245 247 249 251 254 256 258 259 261 264 266 268 270 272 274 276 278 279 281 283 285 286 287
224 225 226 226 225 226 228 230 231 229 228 228 232 234 235 235 236 237 238 240 242 245 246 248 250 252 255 257 259 261 263 265 267 270 272 274 276 278 280 281 283 285 286 287
225 225 227 226 224 227 228 229 230 230 228 229 231 233 234 235 235 236 237 239 242 245 246 248 250 252 254 257 259 261 263 265 268 270 272 275 277 279 281 282 284 285 286 287
226 225 229 226 226 228 229 228 230 232 231 231 232 233 233 234 235 236 238 240 242 244 247 249 251 253 254 256 258 260 263 266 268 271 273 275 277 279 281 283 284 285 286 287
226 226 226 225 225 227 229 228 228 231 231 232 232 232 232 234 235 236 238 240 242 244 246 249 252 254 255 257 259 261 264 267 269 271 273 276 277 279 281 283 284 286 287 288
227 226 224 220 223 226 228 227 225 228 229 230 231 233 232 233 235 236 237 239 242 244 246 249 251 253 255 257 259 262 264 266 268 271 274 276 278 280 282 283 285 286 288 290
227 227 221 217 222 225 227 224 224 227 228 229 231 232 229 231 234 235 236 238 241 243 245 247 249 252 254 257 259 261 264 266 269 271 274 276 278 280 282 284 285 287 288 290
228 226 219 218 222 224 225 224 225 227 227 229 230 230 229 231 233 235 236 238 240 243 245 247 249 251 254 257 259 261 264 267 269 272 274 276 278 281 283 284 286 288 289 291
228 224 220 221 223 223 223 223 224 225 226 228 229 230 231 232 234 236 237 239 240 242 244 246 248 251 254 257 259 261 264 266 269 272 274 277 279 281 283 285 287 289 291 292
226 222 221 221 223 223 222 222 222 223 224 226 228 231 232 233 235 237 238 239 241 242 243 246 249 251 254 257 259 261 264 266 270 273 275 277 279 281 284 286 288 290 292 293
224 221 221 220 221 221 220 222 223 224 225 225 227 230 232 234 236 237 237 239 240 241 244 246 249 252 254 256 258 261 264 268 271 273 275 278 280 282 285 287 290 292 293 295
223 221 221 218 219 219 219 220 223 225 226 227 229 231 233 234 235 235 235 237 240 242 244 246 249 251 253 256 259 263 266 268 270 273 276 278 281 284 286 288 291 292 294 296
222 221 223 220 219 220 220 219 220 223 224 225 228 230 232 233 234 234 235 238 240 241 243 246 248 251 254 257 261 264 266 269 271 274 277 280 283 285 287 289 291 293 295 297
223 222 222 221 220 219 219 219 219 222 224 224 226 228 230 231 233 234 236 239 240 242 244 247 249 253 256 259 262 265 267 269 272 276 279 282 285 287 289 291 293 295 297 298
222 221 220 219 218 218 219 219 220 222 223 224 226 228 229 230 232 234 237 239 240 243 246 249 251 254 258 261 264 266 268 271 273 277 281 284 286 288 290 292 294 296 297 299
220 218 216 216 216 217 218 219 221 222 223 224 225 227 229 231 234 236 239 241 242 245 247 250 253 256 260 263 266 268 270 273 276 278 281 284 287 289 291 293 295 296 298 300
216 214 215 216 215 217 218 219 221 222 223 223 225 227 230 232 234 237 240 241 243 246 249 252 255 258 261 264 267 270 272 274 277 280 282 285 287 289 292 294 295 297 299 301
216 215 217 217 217 216 216 219 222 224 225 227 227 228 230 233 237 239 240 243 246 249 251 254 257 260 262 265 268 270 273 276 278 281 283 286 288 290 293 294 296 298 300 301
218 216 216 216 216 217 218 220 222 224 226 226 226 228 231 234 237 239 241 244 247 250 254 257 259 261 264 266 269 272 275 277 279 282 284 287 289 292 294 296 297 299 300 302
217 215 214 214 216 217 218 219 220 222 224 224 226 230 232 235 236 238 242 245 248 252 256 260 262 264 266 268 271 274 277 279 281 284 287 289 291 293 295 297 298 300 302 304
215 213 213 214 216 216 217 219 221 223 225 225 228 230 233 235 237 241 243 246 251 255 258 261 263 265 266 269 273 276 279 282 284 285 288 290 293 295 297 298 299 301 303 305
211 211 212 214 216 218 219 220 222 225 228 229 231 232 234 236 239 243 246 249 253 255 258 261 263 265 267 271 275 278 280 283 285 288 290 293 295 297 298 300 301 302 304 306
209 208 211 212 214 217 218 221 224 227 229 231 232 234 236 238 241 245 248 251 253 256 259 261 264 267 270 274 276 279 281 284 288 290 292 294 296 298 300 301 302 303 305 306
207 209 211 213 213 215 218 221 224 226 228 231 233 236 238 240 243 246 249 251 254 257 260 263 265 268 271 274 278 280 283 286 288 290 293 295 297 299 300 302 303 304 305 306
208 210 213 214 214 215 218 221 224 226 229 232 235 237 239 241 244 247 250 252 256 259 262 265 267 270 273 276 279 282 285 287 290 292 294 296 298 300 302 303 303 305 306 306
210 213 214 214 216 216 218 220 224 227 230 232 234 236 239 242 245 248 251 255 258 262 264 266 268 271 274 277 280 282 285 288 291 293 295 297 299 301 303 304 305 305 306 305
209 212 214 215 217 217 219 221 225 228 232 235 237 239 242 245 248 251 254 258 261 264 266 268 270 273 276 278 281 284 287 289 292 294 296 298 300 302 303 305 306 306 306 306
Height
5542 5550 5558 5566 5575 5582 5589 5598 5607 5619 5628 5638 5644 5649 5654 5659 5663 5667 5671 5674 5677 5680 5683 5685 5687 5689 5691 5692 5694 5695 5696 5696 5697 5696 5696 5695 5695 5694 5692 5691 5690 5688 5686 5684
5533 5540 5546 5553 5563 5571 5580 5590 5599 5609 5618 5629 5634 5639 5644 5649 5654 5658 5662 5665 5668 5671 5674 5676 5678 5680 5682 5684 5685 5686 5687 5688 5688 5688 5687 5687 5686 5685 5684 5682 5681 5679 5677 5675
5523 5530 5534 5542 5556 5564 5573 5582 5591 5599 5614 5620 5624 5629 5635 5639 5644 5648 5652 5656 5659 5662 5664 5667 5669 5671 5673 5675 5676 5677 5678 5679 5679 5679 5678 5678 5677 5676 5675 5673 5672 5670 5668 5665
5514 5520 5525 5542 5551 5557 5565 5575 5584 5593 5602 5608 5614 5619 5623 5628 5633 5638 5642 5646 5649 5652 5655 5657 5660 5662 5664 5666 5667 5669 5669 5670 5670 5670 5669 5669 5668 5667 5666 5664 5662 5660 5658 5656
5505 5510 5519 5533 5543 5550 5557 5567 5577 5584 5592 5598 5602 5606 5612 5618 5623 5628 5632 5636 5639 5643 5646 5648 5651 5653 5655 5657 5658 5659 5660 5661 5661 5661 5660 5660 5659 5658 5656 5655 5653 5651 5649 5646
5496 5503 5513 5529 5537 5542 5548 5556 5569 5573 5580 5585 5589 5594 5605 5611 5613 5617 5622 5626 5630 5633 5637 5640 5642 5644 5646 5648 5649 5650 5651 5651 5652 5652 5651 5651 5650 5649 5647 5645 5643 5641 5639 5636
5488 5495 5507 5521 5527 5532 5540 5552 5560 5564 5569 5573 5579 5588 5597 5598 5602 5607 5612 5617 5620 5624 5627 5630 5632 5635 5637 5638 5640 5641 5641 5642 5642 5642 5642 5641 5640 5639 5637 5636 5634 5632 5629 5627
5480 5489 5504 5514 5518 5525 5533 5542 5548 5553 5558 5565 5572 5578 5583 5587 5592 5597 5602 5606 5610 5614 5618 5621 5623 5626 5628 5629 5631 5631 5632 5632 5633 5632 5632 5631 5631 5629 5628 5626 5624 5621 5619 5616
5476 5488 5498 5503 5509 5517 5524 5531 5537 5543 5549 5556 5562 5568 5573 5578 5583 5587 5592 5597 5601 5604 5608 5611 5614 5616 5619 5620 5621 5622 5622 5623 5623 5623 5622 5622 5621 5619 5618 5616 5613 5611 5608 5605
5468 5478 5487 5494 5501 5508 5515 5522 5528 5534 5541 5547 5553 5558 5564 5569 5574 5578 5583 5587 5591 5595 5599 5602 5605 5607 5609 5610 5611 5612 5613 5614 5614 5613 5613 5612 5611 5609 5608 5605 5603 5600 5597 5594
5460 5470 5477 5485 5493 5500 5507 5513 5519 5526 5532 5538 5544 5550 5555 5560 5565 5570 5574 5579 5582 5586 5590 5593 5596 5598 5600 5601 5602 5603 5604 5604 5604 5604 5603 5602 5601 5599 5597 5595 5592 5589 5586 5583
5454 5463 5469 5478 5485 5491 5498 5505 5511 5518 5524 5530 5536 5542 5547 5552 5557 5561 5566 5570 5574 5577 5581 5584 5586 5588 5590 5592 5593 5594 5594 5594 5594 5594 5593 5592 5590 5588 5586 5584 5581 5578 5574 5571
5445 5452 5459 5468 5476 5483 5491 5497 5504 5510 5516 5522 5528 5534 5539 5544 5548 5553 5558 5562 5565 5569 5572 5575 5577 5579 5581 5582 5583 5584 5584 5585 5584 5584 5583 5581 5580 5578 5575 5573 5569 5566 5563 5559
5437 5444 5451 5460 5468 5476 5483 5490 5496 5503 5508 5514 5520 5526 5531 5536 5540 5545 5549 5553 5556 5560 5563 5566 5568 5570 5571 5573 5574 5574 5574 5574 5574 5573 5572 5571 5569 5567 5564 5561 5558 5555 5551 5547
5431 5437 5445 5452 5460 5468 5475 5482 5489 5495 5501 5507 5513 5518 5523 5528 5532 5536 5540 5544 5548 5551 5554 5556 5558 5560 5562 5563 5564 5564 5564 5564 5563 5562 5561 5560 5558 5556 5553 5550 5547 5543 5539 5535
5424 5429 5436 5444 5452 5460 5468 5475 5482 5488 5494 5500 5505 5510 5515 5520 5524 5528 5532 5536 5539 5542 5545 5547 5549 5551 5552 5553 5553 5554 5553 5553 5552 5552 5550 5549 5547 5544 5542 5538 5535 5531 5527 5523
5416 5422 5430 5437 5445 5453 5461 5468 5475 5481 5486 5492 5497 5502 5507 5512 5516 5520 5524 5527 5531 5533 5536 5538 5540 5541 5542 5543 5543 5543 5543 5542 5542 5541 5539 5538 5535 5533 5530 5526 5523 5519 5515 5510
5409 5416 5423 5431 5438 5445 5453 5460 5467 5473 5479 5484 5490 5495 5500 5504 5508 5512 5516 5519 5522 5525 5527 5529 5530 5531 5532 5533 5533 5532 5532 5531 5531 5529 5528 5526 5524 5521 5518 5514 5510 5506 5502 5497
5404 5410 5417 5424 5432 5439 5446 5454 5460 5466 5472 5477 5482 5487 5492 5496 5500 5504 5507 5511 5513 5516 5518 5519 5520 5521 5522 5522 5522 5522 5521 5520 5519 5518 5516 5514 5511 5508 5505 5501 5497 5493 5489 5484
5399 5405 5411 5418 5425 5433 5440 5447 5453 5459 5464 5469 5474 5479 5484 5488 5492 5495 5499 5502 5504 5506 5508 5509 5510 5511 5511 5512 5512 5511 5510 5509 5508 5506 5504 5502 5499 5496 5492 5488 5484 5480 5475 5470
5394 5400 5407 5413 5420 5427 5433 5440 5446 5451 5457 5462 5467 5472 5476 5480 5484 5487 5490 5493 5495 5497 5499 5500 5500 5501 5501 5501 5501 5500 5499 5498 5497 5495 5492 5490 5487 5484 5480 5476 5471 5467 5462 5457
5390 5396 5403 5409 5415 5421 5427 5432 5438 5444 5449 5454 5459 5464 5468 5471 5475 5478 5481 5484 5486 5488 5489 5490 5491 5491 5492 5491 5491 5490 5488 5487 5485 5483 5480 5478 5475 5471 5467 5463 5458 5454 5449 5443
5386 5392 5398 5404 5409 5415 5420 5426 5431 5437 5442 5447 5452 5456 5459 5463 5466 5470 5473 5475 5477 5478 5479 5480 5481 5481 5481 5481 5480 5479 5477 5476 5474 5471 5469 5466 5462 5458 5454 5450 5445 5440 5435 5430
5383 5389 5394 5399 5404 5410 5415 5420 5425 5430 5435 5439 5444 5448 5452 5455 5458 5461 5463 5465 5467 5468 5469 5470 5471 5471 5470 5470 5469 5467 5466 5464 5462 5459 5456 5453 5449 5445 5441 5437 5432 5427 5421 5416
5380 5385 5390 5395 5400 5405 5410 5414 5419 5424 5428 5432 5436 5440 5443 5446 5449 5452 5454 5456 5457 5458 5459 5460 5460 5460 5459 5458 5457 5456 5454 5452 5450 5447 5444 5440 5436 5432 5428 5423 5418 5413 5408 5402
5377 5382 5386 5391 5395 5400 5404 5409 5414 5418 5422 5425 5429 5432 5435 5438 5440 5443 5444 5446 5447 5448 5449 5449 5449 5449 5448 5447 5446 5444 5442 5440 5437 5434 5431 5428 5424 5419 5415 5410 5404 5399 5393 5387
5375 5379 5383 5387 5391 5396 5400 5404 5408 5412 5416 5419 5422 5425 5427 5429 5432 5433 5435 5436 5437 5438 5438 5438 5438 5437 5436 5435 5434 5432 5430 5427 5424 5421 5418 5414 5410 5406 5401 5396 5390 5384 5378 5372